Tracking 29892 objects as of 21-Nov-2024
HD Live streaming from Space Station
objects crossing your sky now

HELLAS SAT 1 (DFS 3)

Track HELLAS SAT 1 (DFS 3) now!
HELLAS SAT 1 (DFS 3) is classified as:


NORAD ID: 22175
Int'l Code: 1992-066A
Perigee: 35,929.7 km
Apogee: 35,961.8 km
Inclination: 13.9 °
Period: 1,443.9 minutes
Semi major axis: 42316 km
RCS: 4.2132 m2 (large)
Launch date: October 12, 1992
Source: Greece (GREC)
Launch site: AIR FORCE EASTERN TEST RANGE (AFETR)
Your satellite tracking list
Your tracking list is empty




NASA's NSSDC Master Catalog

Two Line Element Set (TLE):
1 22175U 92066A   24325.30053478  .00000050  00000-0  00000-0 0  9991
2 22175  13.9385  11.2430 0003792 171.4531  11.8152  0.99731869114828
Source of the keplerian elements: AFSPC